Time,TemperatureF,DewpointF,PressureIn,WindDirection,WindDirectionDegrees,WindSpeedMPH,WindSpeedGustMPH,Humidity,HourlyPrecipIn,Conditions,Clouds,dailyrainin,SolarRadiationWatts/m^2,SoftwareType,DateUTC
2013-07-23 00:22:00,74.0,33.0,-100.00,ENE,65,9.0,13.0,22,0.00,,,0.00,0.000000,,2013-07-23 06:22:00,
2013-07-23 00:33:00,74.0,33.0,-100.00,ENE,65,9.0,13.0,22,0.00,,,0.00,0.000000,,2013-07-23 06:33:00,
2013-07-23 00:42:00,74.0,33.0,-100.00,ENE,65,9.0,13.0,22,0.00,,,0.00,0.000000,,2013-07-23 06:42:00,
2013-07-23 00:52:00,74.0,33.0,-100.00,ENE,65,9.0,13.0,22,0.00,,,0.00,0.000000,,2013-07-23 06:52:00,
2013-07-23 01:33:00,73.0,36.0,-100.00,East,85,5.0,12.0,26,0.00,,,0.00,0.000000,,2013-07-23 07:33:00,
2013-07-23 01:42:00,73.0,36.0,-100.00,East,85,5.0,12.0,26,0.00,,,0.00,0.000000,,2013-07-23 07:42:00,
2013-07-23 01:52:00,73.0,36.0,-100.00,East,85,5.0,12.0,26,0.00,,,0.00,0.000000,,2013-07-23 07:52:00,
2013-07-23 02:22:00,70.0,36.0,-100.00,SE,124,5.0,9.0,29,0.00,,,0.00,0.000000,,2013-07-23 08:22:00,
2013-07-23 02:33:00,70.0,36.0,-100.00,SE,124,5.0,9.0,29,0.00,,,0.00,0.000000,,2013-07-23 08:33:00,
2013-07-23 02:43:00,70.0,36.0,-100.00,SE,124,5.0,9.0,29,0.00,,,0.00,0.000000,,2013-07-23 08:43:00,
2013-07-23 02:52:00,70.0,36.0,-100.00,SE,124,5.0,9.0,29,0.00,,,0.00,0.000000,,2013-07-23 08:52:00,
2013-07-23 03:22:00,68.0,37.0,-100.00,ENE,75,4.0,10.0,32,0.00,,,0.00,0.000000,,2013-07-23 09:22:00,
2013-07-23 03:33:00,68.0,37.0,-100.00,ENE,75,4.0,10.0,32,0.00,,,0.00,0.000000,,2013-07-23 09:33:00,
2013-07-23 03:42:00,68.0,37.0,-100.00,ENE,75,4.0,10.0,32,0.00,,,0.00,0.000000,,2013-07-23 09:42:00,
2013-07-23 03:53:00,68.0,37.0,-100.00,ENE,75,4.0,10.0,32,0.00,,,0.00,0.000000,,2013-07-23 09:53:00,
2013-07-23 04:22:00,67.0,38.0,-100.00,East,92,6.0,10.0,34,0.00,,,0.00,0.000000,,2013-07-23 10:22:00,
2013-07-23 04:32:00,67.0,38.0,-100.00,East,92,6.0,10.0,34,0.00,,,0.00,0.000000,,2013-07-23 10:32:00,
2013-07-23 04:44:00,67.0,38.0,-100.00,East,92,6.0,10.0,34,0.00,,,0.00,0.000000,,2013-07-23 10:44:00,
2013-07-23 04:52:00,67.0,38.0,-100.00,East,92,6.0,10.0,34,0.00,,,0.00,0.000000,,2013-07-23 10:52:00,
2013-07-23 05:22:00,67.0,40.0,-100.00,East,98,5.0,11.0,37,0.00,,,0.00,0.000000,,2013-07-23 11:22:00,
2013-07-23 05:32:00,67.0,40.0,-100.00,East,98,5.0,11.0,37,0.00,,,0.00,0.000000,,2013-07-23 11:32:00,
2013-07-23 05:43:00,67.0,40.0,-100.00,East,98,5.0,11.0,37,0.00,,,0.00,0.000000,,2013-07-23 11:43:00,
2013-07-23 05:52:00,67.0,40.0,-100.00,East,98,5.0,11.0,37,0.00,,,0.00,0.000000,,2013-07-23 11:52:00,
2013-07-23 06:22:00,66.0,40.0,-100.00,East,90,5.0,11.0,39,0.00,,,0.00,0.000000,,2013-07-23 12:22:00,
2013-07-23 06:33:00,66.0,40.0,-100.00,East,90,5.0,11.0,39,0.00,,,0.00,0.000000,,2013-07-23 12:33:00,
2013-07-23 06:43:00,66.0,40.0,-100.00,East,90,5.0,11.0,39,0.00,,,0.00,0.000000,,2013-07-23 12:43:00,
2013-07-23 07:22:00,66.0,40.0,-100.00,East,94,5.0,8.0,39,0.00,,,0.00,47.000000,,2013-07-23 13:22:00,
2013-07-23 07:32:00,66.0,40.0,-100.00,East,94,5.0,8.0,39,0.00,,,0.00,47.000000,,2013-07-23 13:32:00,
2013-07-23 07:43:00,66.0,40.0,-100.00,East,94,5.0,8.0,39,0.00,,,0.00,47.000000,,2013-07-23 13:43:00,
2013-07-23 07:52:00,66.0,40.0,-100.00,East,94,5.0,8.0,39,0.00,,,0.00,47.000000,,2013-07-23 13:52:00,
2013-07-23 08:22:00,68.0,41.0,-100.00,ESE,102,3.0,8.0,38,0.00,,,0.00,151.000000,,2013-07-23 14:22:00,
2013-07-23 08:32:00,68.0,41.0,-100.00,ESE,102,3.0,8.0,38,0.00,,,0.00,151.000000,,2013-07-23 14:32:00,
2013-07-23 08:44:00,68.0,41.0,-100.00,ESE,102,3.0,8.0,38,0.00,,,0.00,151.000000,,2013-07-23 14:44:00,
2013-07-23 08:53:00,68.0,41.0,-100.00,ESE,102,3.0,8.0,38,0.00,,,0.00,151.000000,,2013-07-23 14:53:00,
2013-07-23 09:24:00,79.0,43.0,-100.00,East,97,4.0,7.0,28,0.00,,,0.00,420.000000,,2013-07-23 15:24:00,
2013-07-23 09:32:00,79.0,43.0,-100.00,East,97,4.0,7.0,28,0.00,,,0.00,420.000000,,2013-07-23 15:32:00,
2013-07-23 09:43:00,79.0,43.0,-100.00,East,97,4.0,7.0,28,0.00,,,0.00,420.000000,,2013-07-23 15:43:00,
2013-07-23 09:52:00,79.0,43.0,-100.00,East,97,4.0,7.0,28,0.00,,,0.00,420.000000,,2013-07-23 15:52:00,
2013-07-23 10:22:00,85.0,45.0,-100.00,South,176,2.0,7.0,25,0.00,,,0.00,594.000000,,2013-07-23 16:22:00,
2013-07-23 10:33:00,85.0,45.0,-100.00,South,176,2.0,7.0,25,0.00,,,0.00,594.000000,,2013-07-23 16:33:00,
2013-07-23 10:43:00,85.0,45.0,-100.00,South,176,2.0,7.0,25,0.00,,,0.00,594.000000,,2013-07-23 16:43:00,
2013-07-23 10:52:00,85.0,45.0,-100.00,South,176,2.0,7.0,25,0.00,,,0.00,594.000000,,2013-07-23 16:52:00,
2013-07-23 11:32:00,87.0,49.0,-100.00,North,7,3.0,9.0,27,0.00,,,0.00,921.000000,,2013-07-23 17:32:00,
2013-07-23 11:42:00,87.0,49.0,-100.00,North,7,3.0,9.0,27,0.00,,,0.00,921.000000,,2013-07-23 17:42:00,
2013-07-23 11:54:00,87.0,49.0,-100.00,North,7,3.0,9.0,27,0.00,,,0.00,921.000000,,2013-07-23 17:54:00,
2013-07-23 12:24:00,91.0,48.0,-100.00,NW,310,4.0,11.0,23,0.00,,,0.00,1030.000000,,2013-07-23 18:24:00,
2013-07-23 12:34:00,91.0,48.0,-100.00,NW,310,4.0,11.0,23,0.00,,,0.00,1030.000000,,2013-07-23 18:34:00,
2013-07-23 12:47:00,91.0,48.0,-100.00,NW,310,4.0,11.0,23,0.00,,,0.00,1030.000000,,2013-07-23 18:47:00,
2013-07-23 12:54:00,91.0,48.0,-100.00,NW,310,4.0,11.0,23,0.00,,,0.00,1030.000000,,2013-07-23 18:54:00,
2013-07-23 13:33:00,93.0,42.0,-100.00,NW,315,4.0,13.0,17,0.00,,,0.00,1075.000000,,2013-07-23 19:33:00,
2013-07-23 13:46:00,93.0,42.0,-100.00,NW,315,4.0,13.0,17,0.00,,,0.00,1075.000000,,2013-07-23 19:46:00,
2013-07-23 13:53:00,93.0,42.0,-100.00,NW,315,4.0,13.0,17,0.00,,,0.00,1075.000000,,2013-07-23 19:53:00,
2013-07-23 14:34:00,97.0,38.0,-100.00,WNW,301,6.0,13.0,13,0.00,,,0.00,1263.000000,,2013-07-23 20:34:00,
2013-07-23 14:44:00,97.0,38.0,-100.00,WNW,301,6.0,13.0,13,0.00,,,0.00,1263.000000,,2013-07-23 20:44:00,
2013-07-23 14:55:00,97.0,38.0,-100.00,WNW,301,6.0,13.0,13,0.00,,,0.00,1263.000000,,2013-07-23 20:55:00,
2013-07-23 15:23:00,98.0,39.0,-100.00,NW,318,7.0,15.0,13,0.00,,,0.00,1150.000000,,2013-07-23 21:23:00,
2013-07-23 15:46:00,98.0,39.0,-100.00,NW,318,7.0,15.0,13,0.00,,,0.00,1150.000000,,2013-07-23 21:46:00,
2013-07-23 15:54:00,98.0,39.0,-100.00,NW,318,7.0,15.0,13,0.00,,,0.00,1150.000000,,2013-07-23 21:54:00,
2013-07-23 16:34:00,90.0,28.0,-100.00,ESE,110,16.0,28.0,11,0.00,,,0.00,829.000000,,2013-07-23 22:34:00,
2013-07-23 16:56:00,90.0,28.0,-100.00,ESE,110,16.0,28.0,11,0.00,,,0.00,829.000000,,2013-07-23 22:56:00,
2013-07-23 17:24:00,84.0,36.0,-100.00,SSW,203,15.0,28.0,18,0.00,,,0.00,151.000000,,2013-07-23 23:24:00,
2013-07-23 17:35:00,84.0,36.0,-100.00,SSW,203,15.0,28.0,18,0.00,,,0.00,151.000000,,2013-07-23 23:35:00,
2013-07-23 17:44:00,84.0,36.0,-100.00,SSW,203,15.0,28.0,18,0.00,,,0.00,151.000000,,2013-07-23 23:44:00,
2013-07-23 17:56:00,84.0,36.0,-100.00,SSW,203,15.0,28.0,18,0.00,,,0.00,151.000000,,2013-07-23 23:56:00,
2013-07-23 18:26:00,85.0,38.0,-100.00,SSW,208,6.0,31.0,19,0.00,,,0.00,230.000000,,2013-07-24 00:26:00,
2013-07-23 18:34:00,85.0,38.0,-100.00,SSW,208,6.0,31.0,19,0.00,,,0.00,230.000000,,2013-07-24 00:34:00,
2013-07-23 18:47:00,85.0,38.0,-100.00,SSW,208,6.0,31.0,19,0.00,,,0.00,230.000000,,2013-07-24 00:47:00,
2013-07-23 18:53:00,85.0,38.0,-100.00,SSW,208,6.0,31.0,19,0.00,,,0.00,230.000000,,2013-07-24 00:53:00,
2013-07-23 19:33:00,82.0,42.0,-100.00,NE,47,5.0,14.0,24,0.00,,,0.00,40.000000,,2013-07-24 01:33:00,
2013-07-23 19:44:00,82.0,42.0,-100.00,NE,47,5.0,14.0,24,0.00,,,0.00,40.000000,,2013-07-24 01:44:00,
2013-07-23 19:56:00,82.0,42.0,-100.00,NE,47,5.0,14.0,24,0.00,,,0.00,40.000000,,2013-07-24 01:56:00,
2013-07-23 20:26:00,80.0,43.0,-100.00,NNW,339,7.0,11.0,27,0.00,,,0.00,26.000000,,2013-07-24 02:26:00,
2013-07-23 20:37:00,80.0,43.0,-100.00,NNW,339,7.0,11.0,27,0.00,,,0.00,26.000000,,2013-07-24 02:37:00,
2013-07-23 20:55:00,80.0,43.0,-100.00,NNW,339,7.0,11.0,27,0.00,,,0.00,26.000000,,2013-07-24 02:55:00,
2013-07-23 21:36:00,77.0,45.0,-100.00,NW,321,1.0,9.0,32,0.00,,,0.00,2.000000,,2013-07-24 03:36:00,
2013-07-23 21:54:00,77.0,45.0,-100.00,NW,321,1.0,9.0,32,0.00,,,0.00,2.000000,,2013-07-24 03:54:00,
2013-07-23 22:22:00,74.0,45.0,-100.00,ESE,106,4.0,6.0,36,0.00,,,0.00,0.000000,,2013-07-24 04:22:00,
2013-07-23 22:32:00,74.0,45.0,-100.00,ESE,106,4.0,6.0,36,0.00,,,0.00,0.000000,,2013-07-24 04:32:00,
2013-07-23 22:43:00,74.0,45.0,-100.00,ESE,106,4.0,6.0,36,0.00,,,0.00,0.000000,,2013-07-24 04:43:00,
2013-07-23 22:52:00,74.0,45.0,-100.00,ESE,106,4.0,6.0,36,0.00,,,0.00,0.000000,,2013-07-24 04:52:00,
2013-07-23 23:22:00,76.0,43.0,-100.00,East,101,8.0,16.0,31,0.00,,,0.00,0.000000,,2013-07-24 05:22:00,
2013-07-23 23:32:00,76.0,43.0,-100.00,East,101,8.0,16.0,31,0.00,,,0.00,0.000000,,2013-07-24 05:32:00,
2013-07-23 23:43:00,76.0,43.0,-100.00,East,101,8.0,16.0,31,0.00,,,0.00,0.000000,,2013-07-24 05:43:00,
2013-07-23 23:52:00,76.0,43.0,-100.00,East,101,8.0,16.0,31,0.00,,,0.00,0.000000,,2013-07-24 05:52:00,